This is the latest recevied weather packets stored in our database for station/object SP1BMW-13. If no packets are shown the sender has not sent any weather packets the latest 10 day(s).
| Time | Temp. | Humidity | Pressure | Rain* | Wind** | Luminosity | Snow |
|---|---|---|---|---|---|---|---|
| 1787884698 | 17.78° C | 61% | 1013.6 hPa | 0 mm | 0.89 m/s, 28° | 0 W/m² | - |
| 1787884637 | 17.78° C | 61% | 1013.6 hPa | 0 mm | 0.89 m/s, 347° | 0 W/m² | - |
| 1787884577 | 17.78° C | 61% | 1013.5 hPa | 0 mm | 0.89 m/s, 58° | 0 W/m² | - |
| 1787884517 | 17.78° C | 61% | 1013.5 hPa | 0 mm | 0.89 m/s, 123° | 0 W/m² | - |
| 1787884457 | 17.78° C | 61% | 1013.8 hPa | 0 mm | 0.45 m/s, 30° | 0 W/m² | - |
| 1787884397 | 17.78° C | 60% | 1013.5 hPa | 0 mm | 1.79 m/s, 143° | 0 W/m² | - |
| 1787884337 | 17.78° C | 61% | 1013.6 hPa | 0 mm | 0.45 m/s, 134° | 0 W/m² | - |
| 1787884278 | 17.78° C | 60% | 1013.5 hPa | 0 mm | 1.79 m/s, 68° | 0 W/m² | - |
| 1787884218 | 17.78° C | 60% | 1013.7 hPa | 0 mm | 0.89 m/s, 216° | 0 W/m² | - |
| 1787884158 | 17.78° C | 60% | 1013.7 hPa | 0 mm | 0.89 m/s, 64° | 0 W/m² | - |
| 1787884098 | 17.78° C | 60% | 1013.5 hPa | 0 mm | 1.34 m/s, 352° | 0 W/m² | - |
| 1787884038 | 17.78° C | 60% | 1013.4 hPa | 0 mm | 0.89 m/s, 37° | 0 W/m² | - |
| 1787883977 | 17.78° C | 61% | 1013.5 hPa | 0 mm | 0.45 m/s, 55° | 0 W/m² | - |
| 1787883917 | 17.78° C | 61% | 1013.6 hPa | 0 mm | 0.89 m/s, 70° | 0 W/m² | - |
| 1787883857 | 17.78° C | 60% | 1013.5 hPa | 0 mm | 0.89 m/s, 107° | 0 W/m² | - |
| 1787883797 | 17.78° C | 60% | 1013.5 hPa | 0 mm | 1.34 m/s, 66° | 0 W/m² | - |
| 1787883738 | 17.78° C | 60% | 1013.4 hPa | 0 mm | 0.89 m/s, 74° | 0 W/m² | - |
| 1787883678 | 17.78° C | 61% | 1013.6 hPa | 0 mm | 0.89 m/s, 20° | 0 W/m² | - |
| 1787883617 | 17.78° C | 61% | 1013.6 hPa | 0 mm | 1.34 m/s, 133° | 0 W/m² | - |
| 1787883558 | 17.78° C | 60% | 1013.5 hPa | 0 mm | 1.34 m/s, 7° | 0 W/m² | - |
| 1787883497 | 17.78° C | 61% | 1013.6 hPa | 0 mm | 1.34 m/s, 82° | 0 W/m² | - |
| 1787883438 | 17.78° C | 60% | 1013.6 hPa | 0 mm | 1.34 m/s, 43° | 0 W/m² | - |
| 1787883378 | 17.78° C | 61% | 1013.8 hPa | 0 mm | 0.89 m/s, 56° | 0 W/m² | - |
| 1787883317 | 17.78° C | 61% | 1013.9 hPa | 0 mm | 2.24 m/s, 122° | 0 W/m² | - |
| 1787883257 | 17.78° C | 61% | 1013.7 hPa | 0 mm | 1.79 m/s, 53° | 0 W/m² | - |
* Rain latest hour (hover to see other rain measurements)
** Current wind speed in m/s (hover to see current wind gust speed)